Time,TemperatureF,DewpointF,PressureIn,WindDirection,WindDirectionDegrees,WindSpeedMPH,WindSpeedGustMPH,Humidity,HourlyPrecipIn,Conditions,Clouds,dailyrainin,SoftwareType,DateUTC
2013-10-09 00:04:00,48.0,43.0,30.57,West,275,0.0,0.0,84,0.00,,,0.00,weatherlink.com 1.10,2013-10-09 04:04:00,
2013-10-09 00:19:00,47.8,44.0,30.56,West,275,0.0,0.0,87,0.00,,,0.00,weatherlink.com 1.10,2013-10-09 04:19:00,
2013-10-09 00:34:00,47.4,44.0,30.57,West,275,0.0,0.0,87,0.00,,,0.00,weatherlink.com 1.10,2013-10-09 04:34:00,
2013-10-09 00:49:00,47.2,44.0,30.56,West,275,0.0,0.0,88,0.00,,,0.00,weatherlink.com 1.10,2013-10-09 04:49:00,
2013-10-09 01:04:00,46.7,44.0,30.56,West,275,0.0,0.0,89,0.00,,,0.00,weatherlink.com 1.10,2013-10-09 05:04:00,
2013-10-09 01:19:00,46.7,43.0,30.56,West,275,0.0,0.0,87,0.00,,,0.00,weatherlink.com 1.10,2013-10-09 05:19:00,
2013-10-09 01:34:00,46.7,43.0,30.56,West,275,0.0,0.0,85,0.00,,,0.00,weatherlink.com 1.10,2013-10-09 05:34:00,
2013-10-09 01:49:00,46.6,42.0,30.57,West,275,0.0,0.0,85,0.00,,,0.00,weatherlink.com 1.10,2013-10-09 05:49:00,
2013-10-09 02:04:00,46.1,42.0,30.57,West,275,0.0,0.0,86,0.00,,,0.00,weatherlink.com 1.10,2013-10-09 06:04:00,
2013-10-09 02:19:00,45.7,42.0,30.57,West,275,0.0,0.0,87,0.00,,,0.00,weatherlink.com 1.10,2013-10-09 06:19:00,
2013-10-09 02:34:00,45.6,42.0,30.57,West,275,0.0,0.0,87,0.00,,,0.00,weatherlink.com 1.10,2013-10-09 06:34:00,
2013-10-09 02:49:00,45.8,42.0,30.57,West,275,0.0,0.0,87,0.00,,,0.00,weatherlink.com 1.10,2013-10-09 06:49:00,
2013-10-09 03:04:00,45.6,42.0,30.57,West,275,0.0,0.0,88,0.00,,,0.00,weatherlink.com 1.10,2013-10-09 07:04:00,
2013-10-09 03:19:00,45.3,42.0,30.57,West,275,0.0,0.0,88,0.00,,,0.00,weatherlink.com 1.10,2013-10-09 07:19:00,
2013-10-09 03:34:00,44.9,42.0,30.57,West,275,0.0,0.0,88,0.00,,,0.00,weatherlink.com 1.10,2013-10-09 07:34:00,
2013-10-09 03:49:00,44.8,42.0,30.58,West,275,0.0,0.0,90,0.00,,,0.00,weatherlink.com 1.10,2013-10-09 07:49:00,
2013-10-09 04:04:00,44.9,42.0,30.57,West,275,0.0,0.0,89,0.00,,,0.00,weatherlink.com 1.10,2013-10-09 08:04:00,
2013-10-09 04:19:00,44.6,42.0,30.58,West,275,0.0,0.0,89,0.00,,,0.00,weatherlink.com 1.10,2013-10-09 08:19:00,
2013-10-09 04:34:00,44.3,41.0,30.58,West,275,0.0,0.0,89,0.00,,,0.00,weatherlink.com 1.10,2013-10-09 08:34:00,
2013-10-09 04:49:00,44.0,41.0,30.58,West,275,0.0,0.0,90,0.00,,,0.00,weatherlink.com 1.10,2013-10-09 08:49:00,
2013-10-09 05:04:00,43.9,41.0,30.58,West,275,0.0,0.0,90,0.00,,,0.00,weatherlink.com 1.10,2013-10-09 09:04:00,
2013-10-09 05:19:00,43.8,41.0,30.59,West,275,0.0,1.0,90,0.00,,,0.00,weatherlink.com 1.10,2013-10-09 09:19:00,
2013-10-09 05:34:00,43.7,41.0,30.59,West,275,0.0,1.0,89,0.00,,,0.00,weatherlink.com 1.10,2013-10-09 09:34:00,
2013-10-09 05:49:00,43.5,40.0,30.59,West,275,0.0,0.0,88,0.00,,,0.00,weatherlink.com 1.10,2013-10-09 09:49:00,
2013-10-09 06:04:00,43.3,40.0,30.59,West,275,0.0,0.0,89,0.00,,,0.00,weatherlink.com 1.10,2013-10-09 10:04:00,
2013-10-09 06:19:00,43.0,41.0,30.60,West,275,0.0,1.0,91,0.00,,,0.00,weatherlink.com 1.10,2013-10-09 10:19:00,
2013-10-09 06:34:00,42.9,41.0,30.60,West,275,0.0,0.0,92,0.00,,,0.00,weatherlink.com 1.10,2013-10-09 10:34:00,
2013-10-09 06:49:00,42.7,41.0,30.60,West,275,0.0,1.0,92,0.00,,,0.00,weatherlink.com 1.10,2013-10-09 10:49:00,
2013-10-09 07:04:00,42.4,40.0,30.61,West,275,0.0,1.0,92,0.00,,,0.00,weatherlink.com 1.10,2013-10-09 11:04:00,
2013-10-09 07:19:00,42.5,40.0,30.61,West,275,0.0,1.0,91,0.00,,,0.00,weatherlink.com 1.10,2013-10-09 11:19:00,
2013-10-09 07:34:00,42.7,40.0,30.61,West,275,0.0,1.0,91,0.00,,,0.00,weatherlink.com 1.10,2013-10-09 11:34:00,
2013-10-09 07:49:00,43.1,40.0,30.62,West,275,0.0,0.0,90,0.00,,,0.00,weatherlink.com 1.10,2013-10-09 11:49:00,
2013-10-09 08:04:00,43.7,41.0,30.62,West,275,0.0,2.0,91,0.00,,,0.00,weatherlink.com 1.10,2013-10-09 12:04:00,
2013-10-09 08:19:00,44.1,41.0,30.63,West,275,0.0,2.0,90,0.00,,,0.00,weatherlink.com 1.10,2013-10-09 12:19:00,
2013-10-09 08:34:00,44.7,42.0,30.64,West,275,0.0,1.0,89,0.00,,,0.00,weatherlink.com 1.10,2013-10-09 12:34:00,
2013-10-09 08:49:00,45.4,42.0,30.64,West,273,1.0,2.0,88,0.00,,,0.00,weatherlink.com 1.10,2013-10-09 12:49:00,
2013-10-09 09:04:00,46.3,43.0,30.65,West,273,0.0,2.0,88,0.00,,,0.00,weatherlink.com 1.10,2013-10-09 13:04:00,
2013-10-09 09:20:00,47.8,44.0,30.65,West,281,1.0,1.0,86,0.00,,,0.00,weatherlink.com 1.10,2013-10-09 13:20:00,
2013-10-09 09:35:00,48.8,44.0,30.65,West,279,0.0,2.0,84,0.00,,,0.00,weatherlink.com 1.10,2013-10-09 13:35:00,
2013-10-09 09:50:00,50.0,45.0,30.65,West,267,0.0,2.0,83,0.00,,,0.00,weatherlink.com 1.10,2013-10-09 13:50:00,
2013-10-09 10:05:00,51.5,45.0,30.65,North,355,0.0,3.0,79,0.00,,,0.00,weatherlink.com 1.10,2013-10-09 14:05:00,
2013-10-09 10:20:00,53.2,47.0,30.64,SSW,192,0.0,5.0,78,0.00,,,0.00,weatherlink.com 1.10,2013-10-09 14:20:00,
2013-10-09 10:35:00,54.9,46.0,30.64,West,261,2.0,4.0,71,0.00,,,0.00,weatherlink.com 1.10,2013-10-09 14:35:00,
2013-10-09 10:50:00,56.0,47.0,30.64,SW,223,0.0,3.0,71,0.00,,,0.00,weatherlink.com 1.10,2013-10-09 14:50:00,
2013-10-09 11:05:00,57.6,47.0,30.63,WSW,253,2.0,4.0,69,0.00,,,0.00,weatherlink.com 1.10,2013-10-09 15:05:00,
2013-10-09 11:20:00,59.4,48.0,30.63,WSW,246,1.0,3.0,65,0.00,,,0.00,weatherlink.com 1.10,2013-10-09 15:20:00,
2013-10-09 11:35:00,60.4,48.0,30.63,WNW,303,0.0,3.0,63,0.00,,,0.00,weatherlink.com 1.10,2013-10-09 15:35:00,
2013-10-09 11:50:00,61.6,48.0,30.62,SW,232,2.0,4.0,61,0.00,,,0.00,weatherlink.com 1.10,2013-10-09 15:50:00,
2013-10-09 12:05:00,62.2,47.0,30.62,SW,234,3.0,4.0,59,0.00,,,0.00,weatherlink.com 1.10,2013-10-09 16:05:00,
2013-10-09 12:20:00,63.4,48.0,30.61,SSW,204,1.0,3.0,57,0.00,,,0.00,weatherlink.com 1.10,2013-10-09 16:20:00,
2013-10-09 12:35:00,64.0,46.0,30.61,WSW,252,1.0,4.0,52,0.00,,,0.00,weatherlink.com 1.10,2013-10-09 16:35:00,
2013-10-09 12:50:00,64.2,47.0,30.61,SSW,193,0.0,3.0,54,0.00,,,0.00,weatherlink.com 1.10,2013-10-09 16:50:00,
2013-10-09 13:05:00,64.7,46.0,30.60,NE,53,0.0,3.0,52,0.00,,,0.00,weatherlink.com 1.10,2013-10-09 17:05:00,
2013-10-09 13:20:00,65.3,44.0,30.60,NE,55,2.0,3.0,47,0.00,,,0.00,weatherlink.com 1.10,2013-10-09 17:20:00,
2013-10-09 13:35:00,63.4,45.0,30.59,North,9,0.0,4.0,51,0.00,,,0.00,weatherlink.com 1.10,2013-10-09 17:35:00,
2013-10-09 13:50:00,63.8,46.0,30.59,NW,312,1.0,3.0,53,0.00,,,0.00,weatherlink.com 1.10,2013-10-09 17:50:00,
2013-10-09 14:05:00,63.9,45.0,30.58,WSW,250,2.0,4.0,50,0.00,,,0.00,weatherlink.com 1.10,2013-10-09 18:05:00,
2013-10-09 14:20:00,64.8,44.0,30.58,WSW,248,0.0,2.0,48,0.00,,,0.00,weatherlink.com 1.10,2013-10-09 18:20:00,
2013-10-09 14:35:00,65.6,46.0,30.58,SW,227,1.0,3.0,50,0.00,,,0.00,weatherlink.com 1.10,2013-10-09 18:35:00,
2013-10-09 14:50:00,65.6,42.0,30.57,South,175,0.0,4.0,43,0.00,,,0.00,weatherlink.com 1.10,2013-10-09 18:50:00,
2013-10-09 15:05:00,64.9,43.0,30.57,ENE,76,2.0,3.0,46,0.00,,,0.00,weatherlink.com 1.10,2013-10-09 19:05:00,
2013-10-09 15:20:00,64.7,43.0,30.57,NNE,25,0.0,2.0,45,0.00,,,0.00,weatherlink.com 1.10,2013-10-09 19:20:00,
2013-10-09 15:35:00,64.5,44.0,30.57,SSW,195,0.0,3.0,48,0.00,,,0.00,weatherlink.com 1.10,2013-10-09 19:35:00,
2013-10-09 15:50:00,64.4,45.0,30.57,ENE,62,0.0,2.0,49,0.00,,,0.00,weatherlink.com 1.10,2013-10-09 19:50:00,
2013-10-09 16:05:00,64.4,46.0,30.57,ENE,64,0.0,2.0,52,0.00,,,0.00,weatherlink.com 1.10,2013-10-09 20:05:00,
2013-10-09 16:20:00,64.5,47.0,30.56,ENE,65,0.0,2.0,53,0.00,,,0.00,weatherlink.com 1.10,2013-10-09 20:20:00,
2013-10-09 16:35:00,63.7,47.0,30.56,ENE,74,0.0,2.0,55,0.00,,,0.00,weatherlink.com 1.10,2013-10-09 20:35:00,
2013-10-09 16:50:00,62.5,44.0,30.56,WNW,286,0.0,3.0,52,0.00,,,0.00,weatherlink.com 1.10,2013-10-09 20:50:00,
2013-10-09 17:05:00,61.1,45.0,30.57,WSW,244,0.0,2.0,55,0.00,,,0.00,weatherlink.com 1.10,2013-10-09 21:05:00,
2013-10-09 17:20:00,60.3,45.0,30.57,WSW,244,0.0,1.0,58,0.00,,,0.00,weatherlink.com 1.10,2013-10-09 21:20:00,
2013-10-09 17:35:00,59.6,47.0,30.56,WSW,244,0.0,0.0,64,0.00,,,0.00,weatherlink.com 1.10,2013-10-09 21:35:00,
2013-10-09 17:50:00,58.3,46.0,30.55,WSW,244,0.0,1.0,65,0.00,,,0.00,weatherlink.com 1.10,2013-10-09 21:50:00,
2013-10-09 18:05:00,56.8,48.0,30.55,WSW,244,0.0,1.0,73,0.00,,,0.00,weatherlink.com 1.10,2013-10-09 22:05:00,
2013-10-09 18:20:00,55.3,48.0,30.55,WSW,244,0.0,1.0,75,0.00,,,0.00,weatherlink.com 1.10,2013-10-09 22:20:00,
2013-10-09 18:35:00,54.0,47.0,30.55,WSW,244,0.0,2.0,77,0.00,,,0.00,weatherlink.com 1.10,2013-10-09 22:35:00,
2013-10-09 18:51:00,53.1,47.0,30.55,WSW,244,0.0,0.0,79,0.00,,,0.00,weatherlink.com 1.10,2013-10-09 22:51:00,
2013-10-09 19:06:00,52.3,47.0,30.55,WSW,244,0.0,0.0,81,0.00,,,0.00,weatherlink.com 1.10,2013-10-09 23:06:00,
2013-10-09 19:21:00,51.5,46.0,30.55,WSW,244,0.0,0.0,82,0.00,,,0.00,weatherlink.com 1.10,2013-10-09 23:21:00,
2013-10-09 19:36:00,51.0,46.0,30.55,WSW,244,0.0,0.0,83,0.00,,,0.00,weatherlink.com 1.10,2013-10-09 23:36:00,
2013-10-09 19:51:00,50.5,46.0,30.55,WSW,244,0.0,0.0,84,0.00,,,0.00,weatherlink.com 1.10,2013-10-09 23:51:00,
2013-10-09 20:06:00,49.8,46.0,30.54,WSW,244,0.0,0.0,85,0.00,,,0.00,weatherlink.com 1.10,2013-10-10 00:06:00,
2013-10-09 20:21:00,49.5,46.0,30.54,WSW,244,0.0,0.0,86,0.00,,,0.00,weatherlink.com 1.10,2013-10-10 00:21:00,
2013-10-09 20:36:00,49.4,46.0,30.55,WSW,244,0.0,0.0,87,0.00,,,0.00,weatherlink.com 1.10,2013-10-10 00:36:00,
2013-10-09 20:51:00,49.3,46.0,30.55,WSW,244,0.0,0.0,87,0.00,,,0.00,weatherlink.com 1.10,2013-10-10 00:51:00,
2013-10-09 21:06:00,49.0,45.0,30.55,WSW,244,0.0,0.0,87,0.00,,,0.00,weatherlink.com 1.10,2013-10-10 01:06:00,
2013-10-09 21:21:00,48.9,46.0,30.55,WSW,244,0.0,0.0,88,0.00,,,0.00,weatherlink.com 1.10,2013-10-10 01:21:00,
2013-10-09 21:36:00,48.8,45.0,30.55,WSW,244,0.0,0.0,88,0.00,,,0.00,weatherlink.com 1.10,2013-10-10 01:36:00,
2013-10-09 21:51:00,48.7,46.0,30.55,WSW,244,0.0,0.0,89,0.00,,,0.00,weatherlink.com 1.10,2013-10-10 01:51:00,
2013-10-09 22:06:00,48.7,46.0,30.55,WSW,244,0.0,0.0,90,0.00,,,0.00,weatherlink.com 1.10,2013-10-10 02:06:00,
2013-10-09 22:21:00,48.6,46.0,30.55,WSW,244,0.0,0.0,90,0.00,,,0.00,weatherlink.com 1.10,2013-10-10 02:21:00,
2013-10-09 22:36:00,48.3,46.0,30.55,WSW,244,0.0,0.0,90,0.00,,,0.00,weatherlink.com 1.10,2013-10-10 02:36:00,
2013-10-09 22:51:00,48.1,46.0,30.55,WSW,244,0.0,0.0,91,0.00,,,0.00,weatherlink.com 1.10,2013-10-10 02:51:00,
2013-10-09 23:06:00,47.8,45.0,30.55,WSW,244,0.0,0.0,91,0.00,,,0.00,weatherlink.com 1.10,2013-10-10 03:06:00,
2013-10-09 23:21:00,47.8,45.0,30.54,WSW,244,0.0,0.0,91,0.00,,,0.00,weatherlink.com 1.10,2013-10-10 03:21:00,
2013-10-09 23:36:00,47.7,45.0,30.54,WSW,244,0.0,0.0,90,0.00,,,0.00,weatherlink.com 1.10,2013-10-10 03:36:00,